Palacios, TX

3:42 PM CDT on September 18, 2019 (GMT -0500)
Palacios Municipal

Weather History for KPSX - August, 2019

Change the Weather History Date:

Thursday, August 22, 2019

  Actual Average Record
Temperature  
Mean Temperature 90 °F -  
Max Temperature 95 °F 91 °F 98 °F (1951)
Min Temperature 84 °F 75 °F 66 °F (1946)
Cooling Degree Days 24    
Growing Degree Days 40 (Base 50)    
Moisture  
Dew Point 75 °F    
Average Humidity 64    
Maximum Humidity 74    
Minimum Humidity 49    
Precipitation  
Precipitation 0.00 in - - ()
Sea Level Pressure  
Sea Level Pressure 29.91 in    
Wind  
Wind Speed 10 mph ()    
Max Wind Speed 18 mph    
Max Gust Speed 25 mph    
Visibility 10.0 miles    
Events Rain , Thunderstorm    
Averages and records for this station are not official NWS values.
T = Trace of Precipitation, MM = Missing Value Source: Averaged Metar Reports

Daily Weather History Graph

Daily Weather History Graph

Search for Another Location

Airport or City:

Astronomy

Aug. 22, 2019 Rise Set
Actual Time 6:57 AM CDT 7:57 PM CDT
Civil Twilight 6:33 AM CDT 8:21 PM CDT
Nautical Twilight 6:04 AM CDT 8:50 PM CDT
Astronomical Twilight 5:34 AM CDT 9:20 PM CDT
Moon No Moon Rise 1:03 PM CDT (8/22)
Length of Visible Light 13h 48m
Length of Day
12h 59m
Waning Gibbous, 59% of the Moon is Illuminated
Aug 22
Waning Gibbous
Aug 23
Last Quarter
Aug 30
New
Sep 5
First Quarter
Sep 13
Full

Hourly Weather History & Observations

Time (CDT) Temp. Heat Index Dew Point Humidity Pressure Visibility Wind Dir Wind Speed Gust Speed Precip Events Conditions
12:53 AM 86.0 °F 95.1 °F 75.0 °F 70% 29.95 in 10.0 mi SSE 12.7 mph - N/A   Clear
1:42 AM 86.0 °F 96.0 °F 75.9 °F 72% 29.95 in 10.0 mi SE 12.7 mph - N/A   Mostly Cloudy
1:53 AM 86.0 °F 95.1 °F 75.0 °F 70% 29.95 in 10.0 mi SSE 9.2 mph - N/A   Mostly Cloudy
2:53 AM 86.0 °F 95.1 °F 75.0 °F 70% 29.93 in 10.0 mi SSE 11.5 mph - N/A   Partly Cloudy
3:53 AM 84.9 °F 93.3 °F 75.0 °F 72% 29.92 in 10.0 mi North - - N/A   Clear
4:53 AM 84.9 °F 93.3 °F 75.0 °F 72% 29.92 in 10.0 mi SSE 8.1 mph - N/A   Clear
5:53 AM 84.0 °F 91.9 °F 75.0 °F 74% 29.93 in 10.0 mi SSE 5.8 mph - N/A   Clear
6:53 AM 84.0 °F 91.9 °F 75.0 °F 74% 29.93 in 10.0 mi SSE 5.8 mph - N/A   Clear
7:53 AM 86.0 °F 96.0 °F 75.9 °F 72% 29.95 in 10.0 mi SSE 6.9 mph - N/A   Partly Cloudy
8:53 AM 88.0 °F 98.5 °F 75.9 °F 67% 29.95 in 10.0 mi SSE 10.4 mph - N/A   Clear
9:53 AM 88.0 °F 98.5 °F 75.9 °F 67% 29.95 in 10.0 mi South 8.1 mph - 0.00 in Rain Light Rain
10:53 AM 91.0 °F 100.4 °F 73.9 °F 57% 29.96 in 10.0 mi SSE 8.1 mph - 0.00 in   Clear
11:53 AM 91.0 °F 100.4 °F 73.9 °F 57% 29.95 in 10.0 mi SE 10.4 mph - N/A   Clear
12:53 PM 93.9 °F 103.4 °F 73.0 °F 51% 29.92 in 10.0 mi South 8.1 mph 16.1 mph N/A   Clear
1:53 PM 93.0 °F 104.6 °F 75.0 °F 56% 29.90 in 10.0 mi SE 15.0 mph - N/A   Clear
2:53 PM 95.0 °F 104.5 °F 73.0 °F 49% 29.89 in 10.0 mi SE 18.4 mph 24.2 mph N/A   Clear
3:53 PM 95.0 °F 104.5 °F 73.0 °F 49% 29.87 in 10.0 mi SSE 13.8 mph 20.7 mph N/A Thunderstorm Clear
4:13 PM 93.9 °F 104.0 °F 73.9 °F 52% 29.86 in 10.0 mi SSE 15.0 mph - N/A   Clear
4:53 PM 93.0 °F 103.2 °F 73.9 °F 54% 29.85 in 10.0 mi SE 17.3 mph - N/A   Clear
5:53 PM 91.9 °F 101.3 °F 73.9 °F 55% 29.85 in 10.0 mi SSE 16.1 mph - N/A   Partly Cloudy
6:53 PM 90.0 °F 99.0 °F 73.9 °F 59% 29.86 in 10.0 mi ESE 18.4 mph 25.3 mph N/A   Partly Cloudy
7:53 PM 87.1 °F 97.3 °F 75.9 °F 69% 29.88 in 10.0 mi SE 18.4 mph - N/A   Partly Cloudy
8:53 PM 86.0 °F 95.1 °F 75.0 °F 70% 29.88 in 10.0 mi SE 15.0 mph - N/A   Clear
9:53 PM 86.0 °F 93.0 °F 73.0 °F 65% 29.90 in 10.0 mi SSE 13.8 mph - N/A   Clear
10:53 PM 84.9 °F 93.3 °F 75.0 °F 72% 29.90 in 10.0 mi SE 9.2 mph - N/A   Clear
11:53 PM 84.9 °F 93.3 °F 75.0 °F 72% 29.90 in 10.0 mi SE 6.9 mph - N/A   Partly Cloudy